Location: Garchizy
(47.0479°N, 3.0963°E)
Time: 13:58:43
(UTC+00:00)

Daily predictions for brighter satellites

Satellite Brightness Start Highest point End
(mag) Time Altitude Azimuth Time Altitude Azimuth Time Altitude Azimuth
Cosmos 1703 4.1 20:17:07 10° SSE 20:20:32 31° E 20:24:00 10° NNE
COSMOS 2428 4.1 20:17:39 10° SE 20:21:22 18° E 20:25:05 10° ENE
Geosat 4.5 20:16:44 10° SSE 20:21:42 60° WSW 20:26:42 10° NW
Cosmos 1812 Rocket 3.5 20:17:54 10° N 20:22:16 80° E 20:26:35 10° SSE
Cosmos 1844 4.2 20:17:52 10° NNW 20:23:31 51° ENE 20:29:04 10° SE
Cosmos 2322 4.5 20:20:00 10° SSE 20:25:00 32° ESE 20:30:00 10° NE
CZ-2C R/B 4.3 20:21:23 10° N 20:26:08 68° WNW 20:30:52 10° SSW
Cosmos 1602 Rocket 3.7 20:24:51 10° S 20:29:15 85° W 20:33:45 10° N
Cosmos 2263 Rocket 3.9 20:27:00 10° NW 20:31:43 29° WSW 20:36:25 10° SSW
Nadezhda 1 Rocket 4.1 20:26:26 10° N 20:32:52 84° E 20:39:17 10° S
Atlas Centaur 2 3.9 20:30:26 10° SSW 20:34:12 17° S 20:38:26 10° SE
MetOp-B 4.2 20:29:05 10° SSE 20:34:25 81° ENE 20:39:49 10° NNW
Terra 3.3 20:32:16 10° ESE 20:36:02 24° ENE 20:39:48 10° N
Cosmos 2219 Rocket 3.2 20:32:40 10° SSE 20:37:14 27° ESE 20:41:50 10° NE
Cosmos 2360 Rocket 2.2 20:33:17 10° SSW 20:38:53 73° ESE 20:44:32 10° NNE
IGS 5A 3.6 20:35:59 10° SSE 20:40:05 64° ENE 20:44:14 10° N
Cosmos 2333 Rocket 2.9 20:41:52 10° SSE 20:46:55 34° ESE 20:52:02 10° NE
ATLAS 2AS CENTAUR R/B 4.3 20:43:16 10° NW 20:50:09 33° NNE 20:56:33 10° E
Cosmos 1315 Rocket 4.1 20:47:34 10° N 20:51:08 28° ENE 20:54:13 12° SE
Resurs 01 Rocket 2.7 20:47:47 10° S 20:51:58 42° W 20:56:10 10° NNW
Cosmos 1818 3.6 20:48:39 10° SSW 20:54:04 86° SE 20:59:34 10° NE
CZ-2C R/B 4.3 20:49:11 10° N 20:54:07 36° WNW 20:58:56 10° SW
Cosmos-2242 3.0 20:50:26 10° N 20:54:48 79° E 20:59:06 10° SSE
Cosmos 773 Rocket 4.2 20:51:52 10° S 20:56:59 51° ESE 21:02:07 10° NNE
SL-16 R/B 3.7 20:52:37 10° SW 20:57:58 41° NW 21:03:21 10° NNE
Cosmos 2221 4.1 20:56:07 10° NNE 20:59:33 22° ENE 21:02:29 12° ESE
ERS-1 Rocket 3.2 20:56:51 12° SSE 21:01:23 61° ENE 21:06:23 10° N
GEOS 3 Rocket 3.7 20:58:48 10° NE 21:04:13 74° SE 21:09:36 10° SSW
USA 215 3.4 21:01:20 10° ENE 21:07:42 51° SE 21:14:01 10° SSW
Cosmos 2278 Rocket 3.3 21:03:12 10° NNW 21:08:20 33° NE 21:13:09 11° ESE
ATLAS 5 CENTAUR R/B 1.7 21:06:38 10° SW 21:10:46 79° NW 21:15:28 10° NE
USA 245 3.8 21:08:35 10° S 21:11:41 51° W 21:15:43 10° NNW
Meteor 1-11 4.3 21:06:09 10° S 21:11:42 65° E 21:17:21 10° NNE
Cosmos 1844 Rocket 3.0 21:07:51 10° NNW 21:13:20 60° WSW 21:18:16 13° S
Gblst 52 Del rocket 4.5 21:08:11 10° WNW 21:13:51 75° NNE 21:20:09 10° ESE
Cosmos 1400 Rocket 3.2 21:10:10 10° NNW 21:14:07 62° W 21:17:41 12° S
Cosmos 1758 Rocket 4.2 21:10:22 10° SSW 21:14:48 59° WNW 21:19:16 10° N
SPOT 5 2.9 21:13:56 15° SSE 21:18:06 74° ENE 21:22:55 10° N
Lacrosse 5 rocket 4.0 21:16:11 10° WNW 21:19:27 21° N 21:22:36 10° NE
Spot 2 Rocket 4.2 21:17:05 10° S 21:22:00 50° W 21:26:59 10° NNW
USA 81 4.0 21:19:52 12° S 21:24:41 72° E 21:29:58 10° N
Cosmos 2058 4.4 21:25:00 17° ESE 21:26:39 22° E 21:29:51 10° NE
BREEZE M DEB (TANK) 2.1 21:24:45 10° WNW 21:27:08 41° SSW 21:27:39 32° SSE
Cosmos 2181 Rocket 4.0 21:22:39 10° N 21:29:03 86° E 21:34:15 16° S
Cosmos 2074 Rocket 4.3 21:29:16 17° SSE 21:33:52 50° E 21:39:51 10° NNE
SPOT 1/Viking Rocket 4.3 21:31:53 11° S 21:36:37 49° W 21:41:38 10° NNW
Cosmos 1953 Rocket 4.0 21:33:38 10° SSW 21:37:54 61° WNW 21:42:13 10° N
USA 267 3.5 21:34:05 10° ESE 21:40:32 70° NNE 21:47:04 10° NW
Cosmos 2084 3.5 21:41:05 10° NW 21:45:35 87° SW 21:48:05 26° SE
Cosmos 1842 Rocket 3.5 21:42:14 10° N 21:46:36 74° E 21:49:02 25° SSE
MTI 3.8 21:49:16 10° NNE 21:52:19 54° E 21:53:10 38° SSE
Cosmos 923 Rocket 4.3 21:52:20 23° SSE 21:55:20 48° ESE 22:00:24 10° NNE
ATLAS CENTAUR R/B 1.2 21:53:22 10° NW 21:57:01 62° WSW 21:58:26 33° SSE
Cosmos 1825 3.8 21:58:09 18° ESE 21:58:47 19° E 22:01:30 10° NE
Cosmos 1980 4.0 21:56:55 23° SSE 22:00:05 45° ESE 22:05:27 10° NE
COSMOS 2428 2.9 21:59:18 10° SSW 22:04:57 76° WNW 22:10:40 10° NNE
Cosmos 1869 3.3 22:03:34 10° NNW 22:07:34 80° W 22:09:22 32° S
NOSS 0 Rocket 3.9 22:07:31 17° SSW 22:12:22 68° ESE 22:18:30 10° NNE
Terra 2.5 22:10:34 21° SSW 22:13:31 46° W 22:18:07 10° NNW
NOSS 3-4 (A) 4.0 22:07:13 10° NW 22:14:07 69° NE 22:19:46 19° SE
NOSS 3-4 (C) 4.0 22:07:20 10° NW 22:14:14 69° NE 22:19:55 19° SE
Cosmos 2237 Rocket 2.3 22:14:58 24° S 22:18:18 59° ESE 22:23:55 10° NNE
Genesis I 3.7 22:18:36 37° SE 22:18:54 38° ESE 22:22:32 10° NE
BREEZE-M DEB 4.4 22:16:18 10° WNW 22:20:34 71° SSW 22:38:13 10° SE
Cosmos 2344 3.8 22:16:02 21° S 22:20:50 47° ESE 22:28:16 10° NE
Cosmos 2219 Rocket 2.9 22:15:24 10° SW 22:20:51 53° WNW 22:26:22 10° NNE
BREEZE-M R/B 4.5 22:12:02 10° WNW 22:21:15 42° SW 22:23:37 28° S
Elektron 1 4.2 22:21:21 39° S 22:22:20 59° SE 22:27:14 10° NE
Atlas Centaur 2 4.1 22:18:17 10° SW 22:21:20 16° SSW 22:21:20 16° SSW
NOSS 3-3 (A) 4.3 22:17:43 10° SW 22:23:36 68° NW 22:30:18 10° NE
NOSS 3-3 (C) 4.3 22:17:48 10° SW 22:23:42 68° NW 22:30:26 10° NE
DELTA 2 R/B (1) 4.1 22:23:38 10° SW 22:28:37 34° SSE 22:30:02 29° SE
Cosmos 2333 Rocket 3.3 22:25:40 10° SW 22:31:04 43° NW 22:36:33 10° NNE
Thor Agena Rocket 3.5 22:26:00 10° NNE 22:31:05 63° ESE 22:33:18 33° S
Cosmos 2184 Rocket 4.3 22:27:10 17° SSW 22:32:00 66° WNW 22:38:18 10° N
Cosmos 2221 3.5 22:33:11 10° NNW 22:37:16 39° W 22:39:20 24° SW
BREEZE-M DEB (TANK) 1.7 22:36:33 10° WNW 22:40:40 69° NNE 22:41:22 43° E
Iridium 2 3.6 22:37:39 10° N 22:41:30 86° E 22:42:26 50° S
Cosmos 1371 Rocket 4.0 22:36:36 10° NNW 22:41:54 80° ENE 22:44:15 34° SSE
ATLAS 2AS CENTAUR R/B 2.8 22:34:30 10° NW 22:42:09 88° NE 22:46:25 26° SE
Cosmos 1892 3.3 22:41:59 30° SW 22:43:32 51° WNW 22:47:16 10° N
EO 1 Del DPAF 3.1 22:40:23 10° NNE 22:44:09 74° ESE 22:44:59 51° S
Cosmos 1766 Rocket 4.3 22:44:24 33° ESE 22:45:24 38° E 22:49:29 10° NNE
MOS 1-B Rocket 4.4 22:38:17 10° NNE 22:46:04 75° ESE 22:49:56 28° S
Okean 3 Rocket 4.0 22:47:02 38° SE 22:48:11 47° E 22:52:27 10° NNE
Aureole 2 Rocket 2.9 22:46:15 10° N 22:48:56 37° ENE 22:48:59 37° ENE
USA 215 3.7 22:44:21 10° NE 22:50:50 63° NNW 22:57:16 10° WSW
Cosmos 2112 Rocket 4.0 22:48:24 28° SSW 22:51:20 89° WNW 22:56:44 10° NNE
Cosmos 1606 3.4 22:47:43 10° N 22:51:28 44° ENE 22:52:19 38° ESE
Cosmos 2278 Rocket 2.8 22:47:10 10° NW 22:52:35 46° WSW 22:54:59 29° SSW
Cosmos 2297 4.1 22:48:26 10° NNW 22:54:08 59° ENE 22:57:11 27° SE
Cosmos 158 Rocket 3.9 22:52:56 28° SSW 22:55:32 76° WNW 23:00:29 10° NNE
Lacrosse 5 rocket 3.6 22:56:22 10° NW 22:59:42 24° NNE 23:02:54 10° ENE
Cosmos 1943 Rocket 3.4 22:55:25 10° NNW 23:00:38 36° NE 23:04:40 15° ESE
Spot 4 4.0 22:59:07 37° SSW 23:00:52 63° WSW 23:05:38 10° NNW
SL-16 R/B 2.5 23:00:46 36° SSE 23:02:39 50° ESE 23:08:08 10° NE
TIMED 4.4 23:01:49 44° SSW 23:03:10 84° ESE 23:07:33 10° NNE
Cosmos 2058 4.2 23:01:10 21° SW 23:03:21 35° WNW 23:07:11 10° N
Cosmos 1408 3.3 23:03:24 35° WSW 23:04:23 45° WNW 23:07:50 10° N
Cosmos 2056 Rocket 3.6 23:00:25 10° NNW 23:05:51 77° WSW 23:07:58 38° S
Cosmos 2341 Rocket 4.0 23:11:46 31° SSW 23:14:56 83° W 23:21:12 10° N
Cosmos 332 Rocket 4.4 23:14:45 10° NNW 23:19:26 50° ENE 23:21:28 30° ESE
Cosmos 1680 Rocket 4.4 23:15:58 17° SW 23:19:50 47° WNW 23:25:00 10° NNE
Meteor 2-3 Rocket 4.0 23:21:02 36° SSE 23:23:06 57° E 23:28:40 10° NNE
USA 267 3.7 23:21:24 33° S 23:23:46 44° SW 23:30:01 10° WNW
Cosmos 2151 3.5 23:23:52 36° SW 23:25:17 53° WNW 23:29:30 10° N
IRIDIUM 104 4.3 23:23:26 41° S 23:25:19 83° E 23:30:34 10° N
Helios 1A 3.3 23:24:53 42° SE 23:25:59 58° ENE 23:30:06 10° N
Cosmos 405 4.2 23:25:20 10° N 23:28:34 32° ENE 23:29:08 30° E
Meteor 1-26 Rocket 4.4 23:26:43 10° N 23:32:45 76° ENE 23:35:20 36° SSE
Cosmos 1452 Rocket 3.6 23:27:38 10° NNW 23:32:54 69° ENE 23:35:06 35° SE
CZ-4C R/B 3.8 23:26:46 10° NNW 23:33:24 46° NE 23:41:05 10° ESE
SL-8 Rocket 4.0 23:30:59 34° SSW 23:33:53 80° W 23:40:06 10° N
Cosmos 1825 3.5 23:32:56 27° WSW 23:34:04 33° WNW 23:37:32 10° N
IRIDIUM 114 4.3 23:32:35 41° S 23:34:29 83° W 23:39:44 10° N
COSMOS 2455 3.1 23:28:37 10° NNW 23:34:39 65° NE 23:38:24 24° SE
Cosmos 1340 2.5 23:34:23 68° SSE 23:34:45 78° E 23:38:32 10° NNE
ALOS 2 3.0 23:35:27 42° SW 23:36:26 52° W 23:40:45 10° NNW
Cosmos 1408 Rocket 3.5 23:35:56 53° S 23:36:55 78° E 23:41:20 10° NNE
Cosmos 1933 3.3 23:33:33 10° NNW 23:37:34 72° W 23:38:13 58° SSW
Cosmos 1151 Rocket 3.1 23:34:49 10° NNW 23:39:08 66° W 23:40:03 50° SSW
Meteor 2-12 Rocket 4.4 23:37:27 36° SSW 23:40:11 86° W 23:46:22 10° N
IRIDIUM 103 4.4 23:41:42 39° SSW 23:43:38 69° W 23:48:52 10° N
APEX 3.2 23:42:13 10° NNW 23:44:22 50° N 23:44:22 50° N
Cosmos 44 3.1 23:43:37 39° SW 23:45:10 74° NW 23:49:38 10° NE
Cosmos 1727 Rocket 4.0 23:38:58 10° N 23:45:14 81° E 23:48:04 35° SSE
Cosmos 2369 Rocket 2.8 23:39:50 10° NNW 23:45:18 51° ENE 23:48:49 22° SE
Cosmos 1500 Rocket 4.1 23:44:49 40° SE 23:45:45 48° E 23:50:00 10° NNE
SL-4 R/B 3.5 23:48:59 16° NNW 23:48:59 16° NNW 23:49:33 10° NNW
GP-B 3.6 23:43:16 10° N 23:47:34 49° W 23:48:50 37° SW
Cosmos 371 Rocket 3.3 23:44:20 10° NNW 23:49:10 67° WSW 23:50:25 47° S
SeaSat 1 4.5 23:48:00 10° ENE 23:50:24 13° ESE 23:51:20 13° ESE
Helios 1B rocket 3.3 23:50:56 10° NNE 23:54:45 35° E 23:55:23 33° ESE
CREW DRAGON DEMO-1 DEB 3.6 23:54:49 40° WNW 23:55:31 52° NNW 23:58:31 10° ENE
